Weather History for Winnemucca, NV

Change the Weather History Date:

Tuesday, May 8, 2012

  Actual Average Record
Temperature  
Mean Temperature 54 °F 53 °F  
Max Temperature 79 °F 70 °F 91 °F (1974)
Min Temperature 28 °F 36 °F 10 °F (2002)
Degree Days  
Heating Degree Days 11 12  
Month to date heating degree days 108 106  
Since 1 July heating degree days 5929 5986  
Cooling Degree Days 0 0  
Month to date cooling degree days 0 0  
Year to date cooling degree days 3 0  
Growing Degree Days 4 (Base 50)    
Moisture  
Dew Point 16 °F    
Average Humidity 35    
Maximum Humidity 63    
Minimum Humidity 7    
Precipitation  
Precipitation 0.00 in 0.03 in 0.44 in (1890)
Month to date precipitation T 0.30  
Year to date precipitation 2.95 3.55  
Snow  
Snow 0.00 in 0.00 in 0.50 in (1896)
Month to date snowfall 0.0 0.1  
Since 1 July snowfall 23.5 20.9  
Snow Depth 0.00 in    
Sea Level Pressure  
Sea Level Pressure 30.06 in    
Wind  
Wind Speed 4 mph (ESE)    
Max Wind Speed 15 mph    
Max Gust Speed 21 mph    
Visibility 10 miles    
Events      
T = Trace of Precipitation, MM = Missing Value Source: NWS Daily Summary

Daily Weather History Graph

Daily Weather History Graph

Search for Another Location

Airport:

Trip Planner

Search our weather history database for the weather conditions in past years. The results will help you decide how hot, cold, wet, or windy it might be!

Date:

Astronomy

May. 08, 2012 Rise Set
Actual Time 5:40 AM PDT 7:55 PM PDT
Civil Twilight 5:09 AM PDT 8:26 PM PDT
Nautical Twilight 4:32 AM PDT 9:04 PM PDT
Astronomical Twilight 3:50 AM PDT 9:45 PM PDT
Moon 11:10 PM PDT (5/8) 7:52 AM PDT (5/8)
Length of Visible Light 15h 16m
Length of Day
14h 15m
Waning Gibbous, 90% of the Moon is Illuminated
May 8
Waning Gibbous
May 12
Last Quarter
May 20
New
May 28
First Quarter
Jun 4
Full

Hourly Weather History & Observations

Time (PDT) Temp. Windchill Dew Point Humidity Pressure Visibility Wind Dir Wind Speed Gust Speed Precip Events Conditions
12:56 AM 54.0 °F - 19.9 °F 26% 30.12 in 10.0 mi NE 13.8 mph - N/A   Clear
1:56 AM 51.1 °F - 21.0 °F 31% 30.12 in 10.0 mi ENE 5.8 mph - N/A   Clear
2:56 AM 44.1 °F - 19.0 °F 37% 30.12 in 10.0 mi Calm Calm - N/A   Clear
3:56 AM 32.0 °F 28.7 °F 17.1 °F 54% 30.15 in 10.0 mi SSE 3.5 mph - N/A   Clear
4:56 AM 28.9 °F 23.9 °F 17.1 °F 61% 30.15 in 10.0 mi ESE 4.6 mph - N/A   Clear
6:56 AM 36.0 °F 32.1 °F 18.0 °F 48% 30.16 in 10.0 mi SSE 4.6 mph - N/A   Clear
7:56 AM 48.0 °F - 19.0 °F 32% 30.15 in 10.0 mi Calm Calm - N/A   Clear
8:56 AM 57.9 °F - 19.0 °F 22% 30.14 in 10.0 mi NE 4.6 mph - N/A   Clear
9:56 AM 63.0 °F - 21.0 °F 20% 30.14 in 10.0 mi NE 6.9 mph - N/A   Clear
10:56 AM 66.9 °F - 19.9 °F 17% 30.10 in 10.0 mi Calm Calm - N/A   Clear
11:56 AM 70.0 °F - 17.1 °F 13% 30.07 in 10.0 mi NE 5.8 mph - N/A   Clear
12:56 PM 73.0 °F - 14.0 °F 11% 30.04 in 10.0 mi Variable 5.8 mph - N/A   Clear
1:56 PM 75.9 °F - 17.1 °F 11% 30.02 in 10.0 mi Variable 4.6 mph - N/A   Clear
2:56 PM 75.9 °F - 12.0 °F 9% 30.01 in 10.0 mi North 5.8 mph - N/A   Clear
3:56 PM 75.9 °F - 12.0 °F 9% 30.02 in 10.0 mi SW 5.8 mph - N/A   Clear
4:56 PM 75.9 °F - 9.0 °F 8% 30.01 in 10.0 mi Variable 3.5 mph - N/A   Clear
5:56 PM 77.0 °F - 8.1 °F 7% 30.00 in 10.0 mi Calm Calm - N/A   Clear
6:56 PM 73.0 °F - 9.0 °F 8% 29.98 in 10.0 mi SW 3.5 mph - N/A   Clear
7:56 PM 64.0 °F - 12.9 °F 14% 29.98 in 10.0 mi SSE 4.6 mph - N/A   Clear
8:56 PM 53.1 °F - 19.0 °F 26% 29.99 in 10.0 mi SE 3.5 mph - N/A   Clear
9:56 PM 51.1 °F - 19.9 °F 29% 29.98 in 10.0 mi SE 6.9 mph - N/A   Clear
10:56 PM 51.1 °F - 18.0 °F 27% 29.98 in 10.0 mi Calm Calm - N/A   Clear
11:56 PM 44.1 °F 40.8 °F 18.0 °F 35% 29.98 in 10.0 mi SE 5.8 mph - N/A   Clear